Dewpoint
41 43 53 65 66 63 64 67 67 66 66 66 66 66 65 65 67 68 68 68 67 67 67 67 67 68 68 67 68 69 69 69 69 68 68 68 67 66 66 66 64 63 64
40 45 54 64 65 67 67 67 67 67 67 66 66 65 65 65 66 68 67 67 67 67 67 67 67 67 67 67 67 68 69 68 68 68 67 67 67 67 67 67 66 64 63
40 45 56 63 64 65 66 66 66 66 66 66 66 65 65 64 64 66 67 67 67 67 67 67 66 66 66 66 66 67 68 68 67 66 65 66 66 67 66 67 67 65 63
39 44 58 61 62 63 64 65 66 66 66 66 66 66 65 64 64 65 66 66 67 66 66 66 66 67 66 66 65 64 64 64 63 63 63 62 64 67 67 66 67 66 64
38 44 57 59 60 61 61 63 64 65 64 65 65 65 65 66 65 65 65 66 66 66 66 66 66 65 66 66 66 65 64 63 62 58 62 64 64 66 67 66 66 66 64
35 41 54 57 58 59 59 60 61 61 62 62 63 63 63 63 64 64 64 63 64 65 66 66 66 66 66 66 66 65 64 63 62 56 58 63 64 66 66 66 67 66 65
33 37 50 54 56 57 57 57 58 59 59 59 60 60 60 60 60 60 60 61 61 61 62 63 64 64 65 65 65 65 64 63 61 57 58 63 65 64 65 65 65 65 66
32 35 42 49 51 53 54 55 55 54 54 55 55 56 55 55 56 55 55 56 56 56 57 58 59 59 60 61 62 63 64 63 60 60 60 62 66 65 64 64 65 65 65
33 34 37 38 44 47 49 50 50 49 49 48 48 49 49 49 49 50 50 51 51 51 51 51 52 53 53 53 53 56 59 62 62 62 63 64 66 65 64 64 63 65 65
31 32 33 33 34 37 39 42 42 42 41 40 40 37 36 38 40 41 41 42 44 44 44 44 44 42 40 40 40 44 50 59 61 63 62 59 63 65 65 64 64 63 64
29 29 30 30 29 28 28 29 30 31 30 28 28 28 27 26 27 30 34 36 35 37 37 37 34 31 27 27 29 37 41 47 53 58 47 51 58 63 65 65 64 63 63
26 25 26 26 25 24 24 25 24 23 23 22 22 22 21 22 25 26 26 27 28 25 27 27 28 22 16 12 14 19 23 33 38 43 46 55 58 61 63 64 64 64 64
22 22 23 24 24 24 23 23 22 22 22 21 20 20 19 19 17 18 21 21 19 19 17 18 17 16 11 10 11 11 13 18 24 32 53 57 60 63 63 64 64 64 64
21 22 22 23 23 22 20 20 21 22 21 20 20 18 17 18 16 15 16 17 17 15 13 14 13 10 8 6 7 10 13 19 28 40 49 49 54 57 60 61 61 62 63
20 20 20 20 19 19 18 18 18 19 19 19 20 20 17 17 15 16 14 14 15 15 13 12 11 8 7 4 4 5 10 18 37 43 43 44 45 48 50 56 56 56 60
20 20 20 19 19 18 17 17 16 17 18 18 19 20 20 18 16 16 15 15 14 14 14 12 11 9 8 6 4 3 9 17 30 31 34 37 36 38 40 47 47 49 55
19 18 19 19 18 17 17 17 17 16 17 17 18 19 19 19 18 18 16 16 15 14 13 14 13 12 11 10 7 7 13 22 22 25 25 27 25 24 29 36 37 41 47
18 16 14 16 18 17 16 15 15 16 16 16 15 16 19 17 17 18 18 17 17 15 15 14 15 14 13 13 10 10 15 25 17 20 20 22 19 18 18 26 29 33 38
18 16 17 18 17 17 16 16 15 14 14 15 16 15 14 16 16 15 17 17 16 16 15 15 16 15 15 15 10 10 17 25 15 17 16 15 14 16 15 20 19 22 29
17 15 15 16 17 16 16 15 14 14 13 13 14 16 16 15 15 15 14 15 15 15 14 14 14 15 15 16 10 10 15 22 14 16 15 12 12 13 13 16 14 18 21
16 15 15 15 15 14 13 11 11 12 12 13 13 13 14 15 15 15 15 13 13 12 12 12 14 12 15 17 10 12 11 20 15 9 14 9 12 11 12 14 12 16 17
15 15 14 15 15 14 13 12 11 11 12 14 13 12 13 13 13 12 14 13 13 12 12 12 13 13 11 16 12 10 3 9 13 6 11 10 9 12 11 12 9 12 16
12 13 13 13 13 14 15 16 14 14 13 12 12 12 12 12 13 12 13 13 13 13 12 11 12 12 10 10 15 12 -2 -0 6 10 5 9 7 9 11 13 9 12 13
9 11 12 13 13 14 14 13 12 10 8 10 11 12 12 11 12 12 12 13 11 11 10 10 9 11 11 9 11 13 17 14 10 4 5 10 8 7 10 11 11 11 11
9 11 13 13 12 13 13 12 11 10 11 11 11 11 10 11 12 12 11 12 11 10 10 10 10 10 10 10 10 11 12 11 11 11 12 6 8 9 9 10 11 11 10
10 12 13 13 12 13 13 13 12 12 10 9 9 9 8 9 10 11 10 11 10 9 9 9 10 9 10 11 11 11 13 12 10 9 8 8 9 9 9 10 9 9 11
Wind_Speed
14 21 27 26 16 14 9 11 10 8 12 14 15 16 16 16 15 17 18 18 18 19 19 19 19 19 20 19 19 19 18 17 16 15 17 16 14 13 12 7 17 16 16
9 17 25 24 26 23 20 15 13 14 15 16 17 16 18 20 18 16 18 18 18 18 19 19 19 19 19 19 19 18 17 15 13 14 16 15 13 13 14 18 18 15 15
8 14 19 21 24 25 23 19 17 18 18 18 19 18 19 20 19 19 19 19 18 18 17 18 19 18 16 18 18 17 15 12 8 5 10 11 12 12 12 13 14 14 14
8 12 16 20 22 25 24 22 22 22 24 23 23 22 22 23 21 21 21 20 19 18 18 16 17 18 17 18 17 15 13 10 8 7 4 10 13 10 9 10 13 13 12
7 11 16 17 20 22 23 23 24 25 25 25 26 26 25 26 25 25 24 24 24 22 19 19 16 17 17 18 18 16 12 8 9 11 14 14 13 9 9 8 10 10 13
7 8 14 15 17 18 21 21 22 25 27 25 26 26 26 26 27 27 26 26 24 25 25 22 20 20 18 18 17 17 14 12 18 10 10 14 15 11 9 8 8 9 9
7 6 11 16 17 18 18 20 20 22 23 24 24 24 26 27 27 27 26 26 25 23 23 23 23 23 22 19 17 16 15 15 14 13 11 18 15 13 11 9 6 4 5
8 7 8 14 17 17 18 19 20 20 21 22 23 24 26 26 26 27 25 25 25 24 24 21 21 21 20 19 18 16 16 16 8 10 10 15 19 14 12 11 10 5 2
9 8 8 10 13 18 18 18 20 20 19 21 22 22 26 25 25 25 24 24 24 25 24 23 21 20 21 22 21 18 15 13 9 10 16 16 19 16 14 11 11 10 5
8 8 9 9 10 12 16 19 19 19 21 20 19 20 21 22 25 25 23 23 24 25 25 25 24 21 21 23 23 22 18 10 12 15 15 18 22 18 17 14 10 10 9
9 8 8 8 9 11 12 12 15 16 16 15 17 19 17 16 17 19 22 24 23 25 25 25 25 25 20 21 24 24 17 13 13 12 16 23 21 19 19 19 14 10 10
11 10 8 8 9 9 10 11 12 14 15 15 15 14 14 13 12 12 16 20 23 22 23 23 23 22 20 16 16 18 16 16 14 12 19 24 20 18 16 18 18 15 13
12 11 9 9 8 9 9 9 9 10 11 14 15 13 14 13 12 13 12 13 14 15 14 15 15 15 15 14 14 14 15 15 14 14 24 24 23 24 23 25 25 23 19
12 12 10 10 10 9 9 11 11 11 12 13 14 14 13 12 14 15 14 15 15 15 16 14 12 13 13 13 13 12 14 12 12 11 17 24 25 27 26 27 28 27 27
13 12 11 10 10 10 11 11 12 12 13 14 15 16 13 14 14 14 15 15 15 14 15 15 15 15 16 15 14 13 11 12 11 8 10 20 24 26 26 26 27 26 26
12 12 11 11 10 11 12 12 12 12 13 14 15 15 16 14 14 14 15 15 15 15 14 15 15 15 15 15 15 15 14 11 11 11 11 10 18 22 26 25 27 26 25
12 12 12 12 11 12 13 13 12 12 13 14 14 16 16 14 15 14 14 14 14 14 15 15 15 15 14 14 15 14 12 11 12 12 13 12 14 17 21 23 24 25 24
13 13 11 10 11 12 12 12 12 12 12 13 13 14 15 15 14 14 13 14 13 13 13 13 14 15 15 15 13 12 11 11 12 13 13 13 14 13 15 20 20 23 24
13 13 13 13 13 13 13 13 13 13 12 12 12 12 13 14 14 13 13 12 12 12 13 13 13 13 14 15 13 12 9 9 11 12 13 13 15 14 13 16 19 19 21
14 14 14 13 13 13 12 12 12 12 11 11 11 11 12 12 12 11 12 12 11 11 12 12 12 12 12 14 12 12 6 6 9 9 11 11 14 15 15 15 14 14 18
15 15 14 14 13 11 11 11 11 10 11 11 11 11 11 11 11 11 10 10 10 11 11 12 11 11 11 14 9 9 3 2 6 10 9 11 13 14 14 14 13 12 12
16 15 14 13 11 8 7 8 9 10 10 10 9 10 10 10 10 10 10 9 10 9 11 11 12 11 8 11 8 8 6 1 6 8 6 9 11 12 13 13 14 14 12
17 15 14 12 11 9 10 10 10 10 10 9 8 8 8 9 9 10 10 8 8 8 8 9 10 10 9 7 8 5 5 4 13 4 7 8 10 12 12 12 15 13 11
16 14 13 13 12 11 11 11 13 10 10 7 7 7 7 7 8 8 7 7 7 6 7 7 7 7 7 7 4 4 1 3 4 7 6 13 10 13 14 11 14 13 12
19 17 15 14 11 10 9 9 9 9 10 8 7 7 6 6 5 5 5 4 4 4 4 4 5 5 5 6 5 5 5 5 9 9 15 12 13 11 12 11 14 12 11
18 17 15 15 13 11 10 9 9 10 10 9 7 6 5 4 4 3 3 2 2 3 4 5 5 6 6 6 7 6 6 5 8 9 13 15 16 14 11 12 9 10 10
Wind_Direction
343 330 340 14 59 86 66 77 88 88 69 83 80 70 69 71 77 75 72 72 72 73 72 72 70 72 72 70 69 74 75 73 74 80 77 75 80 70 57 93 91 83 80
342 334 342 19 35 56 63 65 67 72 73 76 80 78 76 72 73 71 70 71 74 78 80 76 71 63 66 70 68 64 67 74 80 85 92 83 69 68 54 60 78 80 75
7 347 349 23 39 48 52 51 65 73 74 78 79 79 78 75 71 69 68 69 69 71 73 74 68 66 70 68 66 64 59 54 52 85 104 82 79 76 73 74 91 82 77
19 353 9 32 42 46 51 46 54 66 67 69 69 72 75 75 70 69 67 66 67 67 66 66 65 64 61 66 59 58 56 42 6 310 142 85 89 73 83 80 88 89 84
37 9 16 40 49 52 53 50 50 57 63 61 62 63 66 66 65 65 66 66 63 61 63 61 60 57 60 57 53 45 31 14 346 35 56 39 55 65 57 71 94 80 72
64 31 22 45 60 62 61 58 58 61 61 62 63 64 61 60 60 58 58 58 57 56 57 57 61 54 60 54 46 44 24 357 317 60 69 85 54 42 29 44 65 84 92
81 55 44 55 58 64 67 68 64 65 68 66 64 65 66 63 58 56 54 55 54 51 51 51 52 51 46 46 42 34 26 0 9 56 51 55 38 36 32 24 49 59 92
103 99 87 61 64 64 67 70 71 71 70 71 68 67 67 64 64 61 55 55 55 53 50 49 51 49 46 39 35 28 15 8 39 51 52 61 17 17 23 16 10 22 51
107 111 107 93 79 72 70 72 72 73 74 74 71 70 68 65 64 63 58 55 55 55 51 48 44 48 45 39 28 19 9 0 27 35 43 33 8 13 10 4 4 5 12
94 91 91 93 97 91 80 75 77 74 71 72 72 72 71 67 63 60 58 54 54 54 49 46 43 39 38 35 25 9 357 21 30 49 46 20 11 14 10 8 351 356 355
98 90 87 94 93 95 92 89 82 80 80 77 74 70 63 60 59 56 54 52 50 48 48 46 42 36 34 31 20 8 14 16 26 58 41 18 13 8 11 9 8 354 341
119 105 97 94 99 93 90 84 78 73 66 62 60 60 71 72 69 65 50 45 44 41 40 40 40 36 34 29 21 20 16 14 19 21 35 17 15 13 10 8 3 8 2
122 110 101 95 84 88 86 83 73 70 68 59 55 60 60 58 53 50 46 37 36 39 37 33 33 37 33 32 28 26 22 21 11 9 35 22 29 36 35 35 31 21 9
122 113 105 100 97 90 89 82 80 73 66 64 54 52 58 57 52 50 46 39 36 29 30 29 28 35 36 37 37 30 31 23 20 23 38 29 33 33 31 37 36 32 28
126 116 107 105 101 100 95 92 85 79 73 68 60 51 53 59 58 55 50 47 41 34 29 27 26 27 25 21 23 29 37 31 26 35 54 42 39 37 32 32 33 29 26
132 123 115 104 102 100 97 93 88 84 79 72 65 57 55 57 59 56 53 46 41 34 33 29 27 24 23 16 16 18 18 22 42 37 49 37 39 35 33 32 31 28 27
136 130 122 116 110 106 101 96 91 86 83 78 70 60 59 56 59 58 54 47 39 34 31 32 26 27 24 17 15 12 19 14 24 29 37 37 24 24 31 30 29 29 30
144 139 128 122 116 109 104 99 95 91 87 80 75 70 62 59 61 61 56 48 40 37 32 31 26 21 17 12 7 10 14 18 17 29 28 34 27 19 20 21 24 27 27
151 143 137 131 123 114 107 101 96 93 88 83 77 69 62 61 60 63 58 47 42 40 35 26 29 24 14 5 356 7 14 31 23 24 25 32 25 19 17 13 17 21 25
157 153 144 136 131 122 118 114 107 99 91 85 80 73 66 59 58 62 59 51 45 42 37 29 27 23 20 358 349 356 11 48 35 36 30 28 20 15 15 18 12 7 15
163 158 155 148 144 142 141 134 128 116 108 95 83 77 71 66 59 58 58 50 44 45 36 28 18 14 22 358 347 350 5 109 60 13 19 16 22 12 15 14 9 8 5
166 167 162 158 157 147 139 115 119 114 101 101 95 81 74 69 59 61 55 49 40 36 33 28 21 5 21 23 357 316 352 213 38 338 23 11 16 3 5 6 3 5 5
170 167 164 159 154 151 134 135 126 123 132 128 119 98 75 72 64 57 50 45 39 33 29 22 16 14 355 27 31 6 344 348 345 79 338 4 356 355 0 357 349 354 359
164 153 152 153 152 155 161 155 158 156 143 119 119 112 100 80 73 60 54 44 38 25 23 10 8 356 350 347 340 32 2 308 325 317 338 326 351 338 343 351 332 340 349
164 163 158 151 144 144 149 153 150 135 132 135 131 130 117 108 82 69 51 45 38 17 8 351 339 336 326 314 318 321 312 285 263 265 297 312 318 329 313 337 308 322 340
166 163 159 154 147 143 141 146 147 146 147 147 147 145 133 131 128 105 30 32 2 349 336 320 311 299 302 294 289 285 277 286 296 296 294 297 302 307 315 309 322 314 328